{"data":{"norad_id":67053,"epoch":"2026-05-24T21:42:25.364736Z","epoch_age_seconds":86737,"freshness":"FRESH","line1":"1 67053U 25294Z   26144.90446024  .00020214  00000+0  74178-3 0  9997","line2":"2 67053  43.0044 327.7941 0002007 266.7280  93.3342 15.27592966 26454","mean_motion":15.27592966,"eccentricity":0.0002007,"inclination_deg":43.0044,"raan_deg":327.7941,"arg_perigee_deg":266.728,"mean_anomaly_deg":93.3342,"bstar":0.00074178,"rev_number":2645,"period_min":94.265948590392,"perigee_km":481.6332391884,"apogee_km":484.38730370316,"semimajor_km":6861.1472714458,"source":"CELESTRAK","updated_at":"2026-05-25T13:38:21.441413Z"}}